Home > Weather > Bad Kissingen > Past weeks

Flag for Germany Past Weather in Bad Kissingen, Bavaria, Germany — Yesterday and Last 2 Weeks

Now
70 °F

Passing clouds.


Feels Like: 70 °F
Forecast: 53 / 67 °F
Wind: 7 mph from Northwest

Location: Illesheim

Current Time: May 31, 2016 at 4:22:02 PM

Latest Report: May 31, 2016 at 3:58 PM


Visibility: N/A

Pressure: 29.87 "Hg

Humidity: 57%

Dew Point: 54 °F

Location of Bad KissingenLocation

Past Weather in Bad Kissingen — Graph

°F

Bad Kissingen Temperature Yesterday

Maximum temperature yesterday: 69 °F (at 4:58 PM)
Minimum temperature yesterday: 55 °F (at 11:58 PM)
Average temperature yesterday: 61 °F

High & Low Weather Summary for the Past Weeks

 TemperatureHumidityPressure
High82 °F (May 22, 2:58 PM)100% (May 24, 3:58 AM)30.16 "Hg (May 24, 3:58 AM)
Low38 °F (May 18, 12:58 AM)32% (May 22, 1:58 PM)29.58 "Hg (May 30, 3:58 AM)
Average57 °F79%29.93 "Hg
* Reported May 16 2:58 PM — May 31 2:58 PM, Bad Kissingen, Weather by CustomWeather, © 2016

Note: Actual official high and low records may vary slightly from our data, if they occured in-between our weather recording intervals... More about our weather records

Advertising

Bad Kissingen Weather History for the Previous 24 Hours

Scroll right to see more
 ConditionsComfort  
Time TempWeatherWind HumidityBarometerVisibility
2:58 PM
Tue, May 31
70 °FPartly sunny.7 mph57%29.87 "HgN/A
1:58 PM69 °FPartly sunny.8 mph59%29.88 "HgN/A
12:58 PM68 °FScattered clouds.12 mph56%29.87 "HgN/A
11:58 AM67 °FPassing clouds.8 mph59%29.86 "HgN/A
10:58 AM67 °FScattered clouds.10 mph59%29.85 "HgN/A
9:58 AM64 °FSunny.5 mph68%29.85 "HgN/A
8:58 AM63 °FSunny.3 mph69%29.84 "HgN/A
7:58 AM58 °FSunny.1 mph86%29.83 "HgN/A
6:58 AM53 °FSunny.2 mph95%29.84 "HgN/A
5:58 AM48 °FClear.No wind98%29.83 "HgN/A
4:58 AM48 °FClear.1 mph100%29.81 "HgN/A
3:58 AM49 °FClear.2 mph95%29.81 "HgN/A
2:58 AM50 °FClear.2 mph94%29.82 "HgN/A
1:58 AM51 °FClear.1 mph93%29.80 "HgN/A
12:58 AM52 °FClear.3 mph94%29.80 "HgN/A
11:58 PM
Mon, May 30
55 °FClear.2 mph84%29.79 "HgN/A
10:58 PM55 °FPassing clouds.7 mph88%29.78 "HgN/A
9:58 PM58 °FSunny.5 mph81%29.77 "HgN/A
8:58 PM63 °FOvercast.7 mph71%29.76 "HgN/A
7:58 PM66 °FBroken clouds.5 mph71%29.73 "HgN/A
6:58 PM67 °FPartly sunny.13 mph65%29.71 "HgN/A
5:58 PM66 °FPartly sunny.5 mph68%29.70 "HgN/A
4:58 PM69 °FPassing clouds.10 mph65%29.69 "HgN/A
Weather by CustomWeather, © 2016

See weather overviewHow to use our weather pages